Temperature
22 21 21 20 19 20 22 24 26 27 28 29 29 29 28 27 25 24 23 24 24 24 23 22 22 22 21 21 21 21 20 20 20 20 20 20 20 20 20 20 20 19 19 19 19 19 19 19 19
22 21 20 20 20 21 23 25 27 28 29 30 29 29 27 26 24 23 23 24 24 24 23 23 22 22 21 21 21 20 20 20 20 20 20 20 20 20 20 20 20 20 20 20 20 20 20 19 19
22 21 20 19 21 22 24 27 28 29 30 30 29 29 28 26 24 24 25 24 24 24 23 23 22 22 21 21 21 21 20 20 20 20 20 20 20 20 20 20 20 20 20 20 20 20 20 20 20
22 21 20 20 22 24 26 28 29 29 30 29 28 27 27 26 26 25 24 24 24 24 23 23 22 22 22 21 21 21 21 20 20 20 20 20 20 20 20 20 20 20 20 20 20 20 20 20 20
22 21 20 20 23 26 28 30 30 29 29 28 28 26 26 26 27 25 24 24 24 24 23 23 22 22 22 21 21 21 21 20 20 20 20 20 20 20 20 20 20 20 20 20 20 20 20 20 20
22 21 20 21 24 28 29 30 30 29 28 28 27 25 25 25 26 25 24 24 24 24 23 23 22 22 22 22 21 21 21 21 20 20 20 20 20 20 20 20 20 20 20 20 20 20 20 20 20
22 20 21 23 25 27 30 30 30 28 28 27 27 25 25 24 25 24 24 24 24 24 24 23 23 22 22 22 21 21 21 21 20 20 20 20 20 20 20 20 20 20 20 20 20 20 20 20 20
24 21 22 23 25 26 29 29 29 28 27 27 27 25 25 24 24 24 23 23 23 24 24 23 23 23 22 22 22 21 21 21 21 20 20 20 20 20 20 20 20 20 20 20 20 20 20 20 20
25 21 20 23 25 26 28 28 28 28 27 27 27 27 26 25 24 23 23 22 23 23 23 23 23 23 22 22 22 21 21 21 21 20 20 20 20 20 20 20 19 19 19 19 19 19 19 19 19
24 20 22 24 26 26 28 28 28 27 26 25 26 26 26 25 24 23 23 22 22 22 22 22 22 22 22 22 21 21 21 21 20 20 20 20 20 20 19 19 19 19 19 19 19 19 19 19 19
24 23 24 26 27 28 27 27 27 26 24 24 24 24 24 24 24 23 22 22 22 22 22 22 22 22 21 21 21 20 20 20 20 20 20 19 19 19 19 19 18 18 18 18 18 18 18 18 19
24 25 26 27 28 28 28 27 25 25 24 25 24 24 24 24 23 23 22 22 22 22 22 22 21 21 21 21 20 20 20 20 19 19 19 19 19 19 19 18 18 18 18 18 18 18 18 18 18
25 25 27 28 28 28 27 26 24 24 24 23 23 23 23 23 22 22 22 22 22 21 21 21 20 20 20 20 19 19 19 19 19 19 19 19 18 18 18 18 18 18 18 17 17 17 17 18 18
26 26 27 27 27 27 26 25 23 22 23 22 22 21 21 22 22 22 21 21 21 21 21 20 20 20 20 19 19 19 19 19 18 18 18 18 18 18 18 18 18 18 18 17 17 17 17 17 17
27 25 24 25 26 26 25 23 22 21 21 20 20 20 20 20 21 21 21 21 20 20 20 20 19 20 20 19 19 19 19 18 18 18 18 18 18 18 18 17 18 18 17 17 17 17 17 17 17
24 23 23 24 24 25 23 20 21 20 20 19 19 19 19 19 19 20 20 20 20 20 20 20 20 19 19 19 19 18 18 18 18 18 18 18 17 17 17 17 17 17 17 17 17 17 17 17 17
21 21 22 23 24 24 21 19 20 20 20 19 19 19 19 19 19 19 19 19 20 20 20 19 19 19 19 19 18 18 18 18 17 17 17 17 17 17 17 17 17 17 17 17 16 16 16 16 16
21 21 22 22 23 22 20 19 19 19 19 19 18 18 19 19 18 19 19 19 19 19 19 19 19 19 19 18 18 18 18 17 17 17 17 17 17 17 17 17 17 16 16 16 16 16 16 16 16
23 22 22 22 22 21 19 18 18 18 18 18 18 19 18 19 19 19 19 19 19 19 19 19 19 19 18 18 18 17 17 17 17 16 16 16 16 16 16 16 16 16 16 16 15 15 16 16 16
23 22 21 22 22 20 19 18 18 17 18 18 19 19 19 19 19 19 19 19 19 19 19 19 19 19 18 18 18 17 17 17 16 16 16 16 15 15 15 15 15 15 15 15 15 15 15 15 15
22 21 21 21 21 20 19 18 17 18 17 18 19 19 19 20 20 19 19 19 20 19 19 19 19 18 18 18 17 17 17 16 16 16 15 15 15 15 14 14 14 14 15 14 14 14 14 14 15
22 23 23 22 20 17 18 17 17 17 17 18 18 19 19 20 20 20 20 20 20 19 19 19 18 18 18 17 17 17 16 16 15 15 15 15 15 14 14 14 14 14 14 14 14 14 14 14 14
22 23 22 21 18 17 17 17 17 17 17 18 19 20 20 21 21 21 20 20 20 19 19 19 18 18 17 17 16 16 16 15 15 14 14 14 14 14 14 13 14 14 14 14 14 14 14 14 14
23 21 19 18 17 17 17 17 17 16 17 18 19 20 21 21 21 21 21 20 20 19 19 18 18 17 17 16 16 15 15 15 14 14 14 14 13 13 13 13 13 13 13 13 13 13 13 13 14
22 19 18 18 17 17 17 17 17 18 18 18 19 20 21 21 21 21 20 20 19 19 19 18 18 17 16 16 15 15 14 14 14 13 13 13 13 13 13 13 13 13 13 13 13 13 13 13 13
22 20 19 19 17 16 17 17 17 18 19 19 20 21 21 21 21 21 20 20 19 19 18 18 17 17 16 15 15 14 14 13 13 13 12 12 12 12 12 12 12 12 12 12 12 12 12 13 13
23 21 20 17 17 16 16 17 18 19 19 20 20 21 21 21 21 20 20 19 19 18 18 17 17 16 15 15 14 13 13 13 12 12 12 12 12 11 11 11 11 12 12 12 12 12 12 12 12
23 22 18 17 17 17 17 17 17 19 19 19 19 20 21 21 20 20 20 19 18 18 17 16 16 15 14 14 13 13 12 12 12 11 11 11 11 11 11 11 11 11 11 11 11 11 11 11 12
23 23 20 18 18 17 17 18 19 19 19 19 19 21 21 21 20 20 19 18 18 17 16 15 15 14 13 13 12 12 12 11 11 11 10 10 10 10 10 10 10 10 10 10 10 11 11 11 11
24 23 20 20 19 17 17 18 21 19 19 20 20 21 21 20 19 19 18 18 17 16 15 15 14 13 13 12 12 11 11 10 10 10 10 10 9 9 9 9 9 9 10 10 10 10 10 10 10
Wind_Speed
14 11 4 2 1 1 4 6 3 4 4 4 9 10 9 6 4 5 4 17 20 20 19 22 23 23 23 22 21 20 20 19 19 18 18 17 17 17 17 16 16 16 15 15 14 14 13 13 14
11 7 2 1 1 0 5 5 4 3 2 6 9 10 8 7 8 10 7 16 21 19 18 20 23 23 23 22 21 20 19 19 18 18 17 17 16 16 15 15 15 15 14 14 14 13 13 12 12
8 5 2 1 2 4 5 6 7 5 3 3 5 6 5 6 9 7 11 19 18 15 17 21 24 23 23 22 21 20 19 19 18 18 17 17 16 15 15 14 14 14 14 14 13 13 12 12 11
4 2 1 1 7 8 8 10 6 2 2 4 7 6 4 3 6 12 19 19 18 14 15 20 23 23 22 21 20 20 19 19 18 17 17 17 16 15 14 14 13 13 13 13 13 12 12 11 11
3 3 1 4 7 8 12 12 7 5 2 5 9 6 4 5 17 22 20 19 18 14 13 18 22 22 21 20 20 19 18 18 17 17 16 16 16 15 14 14 13 13 13 13 12 12 12 11 10
2 2 1 5 8 10 10 9 3 7 7 8 8 7 4 10 19 20 19 17 17 16 13 16 21 21 21 20 19 18 17 17 17 16 16 15 15 14 14 14 14 14 14 14 13 13 12 12 11
3 2 4 6 8 9 6 3 2 7 7 5 7 7 5 9 15 17 16 16 15 14 12 11 16 18 19 19 18 17 17 16 16 15 15 15 14 14 14 14 14 14 14 14 14 14 13 13 12
5 1 5 5 6 7 7 6 4 5 5 5 5 8 7 9 14 15 16 14 13 11 11 9 11 13 14 15 17 17 16 16 15 15 15 15 14 14 14 15 15 15 15 15 15 15 15 14 14
1 1 6 6 5 7 9 6 5 5 8 5 4 5 8 13 15 16 15 13 11 11 8 8 8 9 11 12 15 16 16 16 15 15 15 15 13 13 13 15 16 17 17 17 17 17 16 16 15
5 4 9 8 7 8 10 4 1 6 10 7 7 7 11 13 13 15 16 14 12 12 10 8 9 8 10 11 11 11 12 12 13 12 13 12 11 12 12 14 17 18 18 19 19 18 17 16 13
6 9 11 13 14 9 6 4 4 8 6 5 9 10 11 12 11 11 12 12 12 12 11 10 9 8 8 5 8 7 8 9 10 11 11 11 10 10 11 10 13 16 18 16 17 18 15 14 12
7 12 13 14 14 8 5 1 5 7 6 9 12 12 12 12 10 9 11 10 9 10 10 10 9 8 7 5 5 5 5 6 7 10 12 9 6 5 6 6 8 10 12 11 11 10 13 13 14
8 12 13 14 12 7 2 6 8 9 12 15 17 16 13 13 10 9 10 9 8 8 8 7 7 7 6 5 3 4 3 4 6 7 9 9 5 5 4 3 5 7 9 9 7 8 8 9 10
7 8 9 9 6 1 6 7 8 6 12 17 17 15 13 13 12 10 9 8 7 7 8 7 6 5 6 5 3 2 2 3 3 3 5 7 5 3 2 2 2 3 6 8 8 8 8 8 8
6 8 10 7 4 1 9 10 8 8 14 16 16 15 14 12 11 10 8 7 7 6 7 7 7 5 6 5 3 2 3 3 2 2 2 3 3 3 2 2 3 3 6 7 6 7 7 8 9
7 6 6 7 7 3 9 8 7 8 14 14 13 13 13 11 10 9 9 7 6 7 7 6 6 5 5 4 3 2 3 3 2 2 2 2 2 1 1 1 3 3 5 4 4 5 6 7 7
6 5 6 7 8 5 9 8 6 8 13 11 10 9 10 10 10 8 8 7 6 6 7 6 5 5 5 4 3 3 3 2 1 1 2 2 1 1 0 1 2 3 2 3 4 3 4 5 6
3 4 5 5 7 11 12 10 8 7 10 9 7 7 8 9 8 7 7 7 6 6 6 7 6 6 5 4 4 3 3 2 1 1 1 1 1 0 0 1 2 2 2 3 3 4 4 5 5
1 1 3 3 5 9 12 11 9 7 7 5 4 5 6 6 6 7 7 7 6 6 6 6 6 4 3 3 2 1 1 1 1 1 1 2 2 2 1 1 2 2 2 3 3 3 5 5 4
2 2 1 2 8 8 10 10 7 5 2 1 2 4 4 5 5 5 6 5 6 6 6 5 5 4 4 3 2 2 1 1 1 1 1 2 3 3 2 2 3 3 2 3 3 3 3 3 4
0 2 2 3 7 9 6 5 5 3 3 2 2 4 5 7 8 7 7 6 7 7 7 7 6 6 5 4 2 2 2 2 2 2 2 3 4 4 4 4 4 3 3 3 3 2 2 3 3
2 4 5 6 7 2 2 2 3 3 3 4 4 5 6 7 7 7 8 8 8 8 8 7 7 6 5 4 3 3 2 2 3 2 3 4 4 5 6 5 5 5 4 3 4 3 3 3 3
5 5 6 7 6 4 2 2 3 2 4 6 7 7 7 7 9 10 10 9 8 7 6 5 5 4 4 4 4 3 3 3 3 2 3 4 5 5 5 5 5 5 4 4 4 3 3 3 3
8 7 7 6 5 4 3 1 4 3 6 5 5 6 7 8 8 7 6 5 4 3 3 4 4 3 3 4 4 4 4 4 3 4 4 4 4 4 5 4 4 5 4 5 5 4 4 3 3
5 6 4 5 5 1 3 1 6 7 6 6 7 6 5 5 5 4 4 3 3 4 3 3 4 3 3 3 3 4 4 4 5 5 4 4 3 3 5 4 4 4 5 5 5 5 4 4 3
3 7 7 4 3 1 3 2 7 8 8 6 7 5 3 3 4 4 4 5 4 3 3 3 3 1 1 1 3 3 3 3 3 4 4 4 4 5 5 4 5 5 5 5 5 4 5 4 4
3 1 6 7 5 3 2 4 8 7 6 4 3 3 4 4 5 5 5 5 5 4 3 4 3 1 1 1 2 2 2 2 3 4 3 3 4 4 4 4 5 5 5 6 5 5 6 5 5
5 6 6 6 6 3 2 3 5 6 4 3 3 5 5 5 5 6 5 4 3 3 3 3 2 1 1 1 2 1 2 2 3 3 4 4 5 4 5 6 5 6 6 6 6 6 6 7 6
3 4 5 5 6 6 4 5 7 9 8 7 7 7 7 7 6 5 4 3 3 3 2 1 0 0 1 1 1 1 2 3 3 4 5 5 5 6 6 6 6 7 7 6 6 7 8 8 8
2 4 6 5 1 5 5 4 3 9 9 9 8 7 7 7 6 5 4 3 2 1 1 1 1 1 2 2 2 3 4 4 5 6 6 6 6 7 7 7 7 7 7 7 7 8 8 9 10
Wind_Direction
154 146 147 127 74 25 264 257 248 308 336 37 72 81 82 65 110 139 125 142 139 146 152 151 147 145 144 143 141 138 136 135 134 133 131 131 131 132 132 133 134 134 134 134 133 131 130 129 128
151 151 145 92 112 358 274 262 277 262 196 106 78 78 72 73 90 109 117 141 141 145 147 149 148 146 146 146 145 143 142 141 141 140 140 139 140 141 141 141 141 141 141 142 140 139 138 137 137
163 172 140 136 213 209 247 244 247 266 243 112 88 63 72 103 113 126 139 139 137 140 144 150 148 147 148 149 149 149 148 148 148 148 148 148 149 150 149 149 149 148 148 148 149 148 147 148 148
149 142 338 215 245 243 243 253 234 234 350 80 101 64 43 65 118 133 137 139 137 137 141 149 148 148 149 150 151 154 155 155 155 155 155 155 157 158 157 158 157 156 157 156 156 157 157 159 160
100 126 219 262 253 258 260 257 234 179 159 99 98 91 48 36 115 131 139 142 139 136 139 148 148 148 150 151 154 157 159 159 160 160 161 162 164 165 166 167 168 167 166 166 166 167 168 171 175
102 127 191 262 268 276 271 259 194 131 122 107 104 108 87 119 126 138 141 142 141 141 140 147 149 150 152 155 158 160 162 163 164 166 167 169 172 174 174 175 177 178 177 176 177 179 181 183 188
160 170 235 262 288 298 295 298 145 126 116 126 127 109 118 134 137 141 139 136 137 141 141 143 150 153 157 159 162 164 166 168 170 172 174 176 179 181 182 184 187 189 189 189 188 190 192 194 198
181 111 287 287 296 297 321 0 51 99 99 115 118 129 155 157 139 135 130 128 132 138 144 143 147 152 157 162 166 169 172 174 177 180 182 184 187 190 193 194 198 200 200 199 199 200 201 204 207
172 83 262 262 278 291 314 358 22 55 94 83 78 125 146 137 127 125 124 125 134 140 147 150 150 152 156 162 173 176 180 183 185 188 190 192 196 199 204 206 208 210 210 210 209 208 209 210 215
152 199 241 239 254 285 306 328 72 79 76 71 72 77 108 117 120 128 137 141 145 150 159 164 165 163 164 175 177 182 187 190 192 195 197 196 199 206 214 219 220 220 219 219 217 214 216 216 218
192 220 249 261 264 267 283 331 28 107 88 120 122 109 100 104 107 120 131 139 149 159 166 170 175 171 175 180 171 186 193 195 201 205 206 204 206 214 224 225 230 230 227 225 223 219 218 217 214
233 251 253 262 268 263 253 104 65 71 116 118 105 100 100 104 104 109 121 134 135 150 163 163 168 168 175 167 169 183 194 196 203 212 213 208 211 216 222 221 225 223 223 220 220 218 218 220 217
248 258 263 266 273 251 173 99 95 78 96 95 93 85 88 101 100 102 105 108 122 135 144 152 145 151 151 146 159 164 173 184 200 204 211 206 206 216 221 224 229 226 223 219 217 218 218 221 223
260 279 291 292 284 199 109 90 84 84 98 94 90 84 86 94 100 99 103 104 107 113 125 121 124 133 127 123 133 137 129 142 151 180 197 198 203 207 218 237 238 236 233 230 222 220 221 223 223
308 323 325 331 346 86 97 61 71 95 93 88 91 92 88 87 93 99 105 101 100 102 110 124 122 112 106 106 111 110 106 106 109 119 135 161 175 194 204 236 247 250 252 245 235 230 225 226 228
354 2 338 325 1 353 93 98 75 81 87 84 87 91 88 83 85 90 95 93 92 96 96 96 105 98 97 99 101 84 89 101 108 102 101 104 115 138 163 262 273 272 270 255 248 238 232 231 227
14 350 321 320 3 39 80 103 78 72 83 83 80 87 93 90 87 90 94 93 90 92 94 89 92 89 80 74 70 66 67 74 91 99 108 104 86 69 117 274 282 294 285 273 268 253 233 236 233
306 312 316 341 12 64 81 88 68 56 82 89 91 90 92 99 105 109 107 106 103 98 96 93 84 81 78 66 58 49 42 32 37 59 122 129 124 86 62 261 279 295 303 293 277 262 254 245 239
202 300 342 17 47 70 86 82 56 46 64 81 98 102 108 121 130 126 125 123 116 107 104 104 103 97 92 77 73 58 359 326 329 279 237 211 211 213 214 267 282 280 278 282 290 279 266 257 242
67 65 53 61 69 84 82 63 39 24 1 159 148 141 149 153 147 145 144 143 140 141 140 139 137 136 133 138 150 164 196 257 262 299 305 279 254 241 229 236 261 267 268 289 296 290 272 264 233
32 173 178 135 73 61 76 35 4 339 332 298 212 186 186 179 180 183 177 175 168 169 173 169 170 165 163 156 127 80 51 22 5 339 306 287 267 255 248 240 239 245 237 254 265 268 273 278 259
220 208 165 125 109 88 113 168 267 261 279 259 248 227 214 199 191 194 191 190 192 194 187 181 181 181 180 159 145 149 167 225 243 249 261 278 268 260 254 244 235 235 229 233 248 239 242 258 276
179 135 107 107 111 96 29 120 262 245 256 252 243 233 227 210 198 201 203 202 203 198 189 187 182 188 185 172 170 178 206 225 248 267 286 292 288 275 263 249 239 236 229 227 235 237 230 231 238
127 91 70 60 75 60 337 14 281 230 231 250 246 236 233 219 206 204 201 185 182 164 155 166 169 198 202 195 195 198 218 237 257 274 281 288 289 288 278 262 249 241 235 232 230 229 228 232 238
102 96 54 26 35 354 327 356 269 266 259 245 254 250 242 203 181 169 157 142 133 130 137 144 157 200 221 217 226 227 232 232 238 250 260 269 278 280 278 269 256 249 243 242 233 228 228 227 233
161 135 145 158 161 228 331 282 268 273 276 265 251 237 233 170 150 145 151 147 142 132 124 124 141 189 234 239 265 270 268 251 252 255 252 257 254 259 268 267 255 254 251 249 238 237 235 227 227
114 116 144 117 102 98 288 297 303 293 282 260 225 172 153 146 138 133 128 129 130 127 126 132 133 139 251 271 283 294 298 282 279 285 279 276 275 279 290 282 267 260 254 250 241 237 236 228 227
126 138 93 107 133 128 192 239 236 243 224 204 157 148 155 142 131 126 126 129 125 121 109 103 112 132 285 318 302 305 297 292 284 286 290 285 284 288 296 292 282 271 260 251 241 244 243 232 231
27 57 96 108 137 138 167 253 221 196 185 169 174 171 164 156 146 140 136 127 115 106 105 102 72 357 306 294 280 294 285 281 283 279 276 275 274 278 277 274 275 273 267 257 244 241 242 237 236
182 171 133 121 99 126 131 258 245 172 173 168 173 173 167 154 148 143 137 122 110 100 298 298 290 273 268 267 267 274 277 282 283 278 274 271 272 273 269 267 267 267 269 260 249 247 247 237 237
Height
1525 1526 1528 1530 1531 1533 1529 1512 1500 1494 1490 1487 1484 1485 1489 1493 1499 1508 1504 1506 1509 1512 1516 1520 1524 1526 1529 1530 1532 1534 1536 1537 1539 1541 1542 1543 1545 1546 1547 1548 1549 1550 1551 1552 1553 1554 1554 1555 1556
1525 1526 1529 1530 1532 1537 1527 1506 1498 1492 1490 1488 1487 1488 1490 1496 1497 1500 1502 1507 1511 1513 1516 1520 1524 1527 1529 1531 1533 1534 1536 1538 1539 1541 1542 1543 1545 1546 1547 1548 1550 1551 1551 1552 1553 1554 1555 1556 1557
1525 1527 1529 1529 1531 1531 1519 1500 1494 1490 1489 1488 1490 1491 1494 1498 1500 1501 1504 1508 1512 1514 1517 1521 1524 1527 1529 1531 1533 1535 1536 1538 1539 1541 1542 1543 1545 1546 1547 1548 1550 1551 1552 1553 1554 1555 1556 1556 1557
1526 1528 1529 1531 1529 1515 1504 1494 1489 1489 1489 1488 1489 1494 1497 1500 1501 1503 1506 1510 1513 1516 1519 1522 1525 1528 1530 1532 1533 1535 1537 1538 1539 1541 1542 1543 1545 1546 1547 1548 1550 1551 1552 1553 1554 1555 1556 1557 1558
1525 1526 1530 1532 1522 1506 1495 1489 1487 1487 1489 1489 1489 1495 1499 1501 1502 1505 1508 1511 1514 1516 1520 1523 1526 1528 1530 1532 1534 1536 1537 1538 1539 1541 1542 1543 1544 1546 1547 1548 1549 1550 1552 1553 1554 1555 1556 1557 1558
1525 1525 1534 1533 1517 1501 1492 1486 1485 1487 1490 1491 1491 1496 1502 1503 1504 1507 1510 1513 1516 1517 1520 1524 1527 1529 1531 1533 1534 1536 1537 1538 1539 1540 1542 1543 1544 1545 1546 1548 1549 1550 1551 1552 1553 1554 1555 1556 1557
1524 1525 1529 1522 1514 1502 1490 1486 1485 1487 1489 1490 1491 1496 1502 1506 1507 1510 1513 1516 1517 1519 1521 1524 1527 1529 1531 1533 1534 1535 1537 1538 1539 1540 1541 1542 1543 1544 1546 1547 1548 1549 1550 1551 1552 1553 1554 1555 1556
1519 1522 1524 1520 1513 1505 1492 1489 1488 1488 1490 1491 1492 1495 1501 1506 1508 1511 1514 1517 1519 1521 1523 1525 1527 1529 1531 1533 1534 1535 1536 1538 1539 1540 1541 1542 1543 1544 1545 1546 1547 1548 1549 1550 1551 1552 1553 1554 1555
1518 1524 1528 1519 1512 1502 1493 1492 1491 1491 1490 1491 1492 1494 1498 1504 1508 1511 1514 1517 1519 1521 1524 1526 1527 1529 1531 1533 1534 1535 1536 1537 1538 1539 1540 1541 1541 1542 1543 1544 1545 1546 1547 1548 1548 1549 1550 1551 1552
1514 1525 1517 1507 1502 1500 1495 1493 1492 1494 1492 1494 1496 1498 1501 1505 1508 1510 1512 1516 1519 1522 1524 1526 1528 1529 1530 1532 1534 1535 1536 1537 1538 1538 1539 1539 1540 1541 1542 1542 1543 1544 1545 1545 1546 1547 1547 1548 1549
1509 1511 1503 1499 1497 1497 1495 1494 1492 1493 1498 1497 1498 1501 1504 1506 1509 1512 1514 1516 1519 1522 1524 1526 1528 1529 1531 1532 1533 1534 1535 1536 1537 1537 1538 1538 1538 1539 1539 1540 1541 1541 1542 1542 1543 1543 1544 1544 1545
1506 1501 1498 1495 1493 1494 1493 1494 1495 1495 1498 1499 1500 1502 1504 1506 1509 1512 1514 1517 1519 1521 1523 1525 1528 1529 1530 1531 1532 1533 1534 1534 1535 1536 1536 1536 1536 1536 1537 1537 1538 1538 1539 1539 1539 1539 1540 1540 1541
1501 1497 1494 1491 1490 1490 1491 1494 1496 1501 1501 1502 1502 1504 1506 1508 1511 1513 1515 1518 1520 1522 1523 1525 1526 1527 1529 1530 1531 1531 1532 1532 1533 1534 1534 1534 1534 1534 1534 1534 1535 1535 1535 1535 1535 1535 1536 1536 1537
1496 1493 1491 1489 1487 1488 1490 1495 1498 1506 1505 1505 1505 1507 1509 1510 1512 1514 1516 1518 1519 1521 1523 1524 1526 1527 1527 1528 1529 1529 1529 1530 1530 1531 1531 1531 1531 1531 1531 1531 1531 1530 1530 1530 1530 1530 1531 1531 1532
1494 1493 1491 1487 1487 1488 1489 1501 1505 1509 1508 1508 1509 1510 1511 1513 1514 1515 1517 1518 1520 1521 1522 1523 1524 1526 1526 1527 1527 1528 1528 1528 1528 1528 1528 1528 1528 1528 1527 1527 1526 1526 1525 1525 1524 1525 1525 1525 1526
1495 1500 1504 1494 1490 1489 1495 1515 1512 1511 1508 1511 1513 1514 1514 1515 1516 1518 1519 1519 1520 1521 1522 1523 1524 1525 1525 1526 1526 1526 1526 1526 1526 1526 1525 1525 1525 1524 1523 1523 1522 1521 1520 1519 1519 1518 1519 1519 1519
1508 1514 1510 1500 1492 1492 1500 1516 1515 1513 1510 1513 1516 1517 1517 1517 1519 1520 1521 1521 1521 1522 1522 1523 1524 1524 1525 1525 1525 1525 1525 1524 1524 1523 1522 1522 1521 1520 1519 1518 1517 1516 1515 1514 1513 1513 1513 1513 1513
1518 1515 1511 1507 1499 1499 1507 1516 1517 1516 1514 1517 1519 1519 1520 1520 1521 1522 1522 1522 1523 1523 1523 1523 1524 1524 1525 1524 1524 1524 1523 1523 1522 1521 1520 1519 1518 1517 1516 1514 1513 1512 1510 1509 1508 1507 1508 1507 1507
1505 1508 1511 1507 1502 1507 1514 1519 1521 1520 1517 1519 1519 1520 1521 1522 1522 1523 1523 1523 1523 1524 1524 1524 1524 1524 1524 1524 1523 1522 1521 1521 1520 1519 1518 1516 1515 1514 1512 1511 1510 1508 1506 1505 1503 1502 1502 1501 1501
1503 1509 1510 1507 1504 1511 1520 1523 1523 1523 1523 1522 1520 1520 1521 1522 1522 1522 1522 1523 1523 1523 1524 1524 1523 1523 1523 1522 1521 1520 1519 1518 1517 1516 1515 1513 1512 1511 1509 1508 1506 1504 1503 1501 1500 1499 1497 1497 1497
1504 1509 1509 1510 1509 1513 1520 1529 1528 1526 1524 1522 1520 1520 1521 1521 1521 1522 1521 1521 1522 1522 1522 1522 1522 1521 1520 1520 1519 1518 1517 1515 1514 1513 1511 1510 1508 1507 1506 1505 1503 1502 1500 1498 1497 1495 1495 1493 1492
1508 1499 1501 1505 1517 1530 1528 1542 1534 1528 1525 1522 1521 1520 1520 1520 1520 1520 1520 1520 1520 1520 1520 1520 1519 1519 1518 1517 1516 1515 1513 1512 1510 1509 1507 1506 1505 1503 1502 1501 1500 1498 1497 1495 1494 1492 1491 1490 1489
1499 1496 1503 1510 1522 1533 1534 1539 1536 1527 1526 1522 1519 1518 1518 1518 1518 1518 1518 1518 1518 1518 1518 1518 1517 1516 1515 1514 1513 1511 1510 1508 1506 1505 1503 1502 1500 1499 1498 1497 1496 1494 1493 1492 1491 1489 1488 1487 1486
1494 1503 1510 1518 1526 1543 1539 1540 1537 1528 1522 1518 1515 1515 1515 1516 1516 1516 1516 1517 1517 1517 1516 1516 1515 1514 1512 1511 1509 1508 1506 1504 1502 1500 1499 1497 1496 1495 1494 1492 1491 1490 1489 1488 1487 1486 1485 1484 1483
1497 1514 1533 1538 1547 1549 1538 1537 1535 1518 1514 1514 1513 1513 1514 1514 1515 1515 1515 1515 1516 1515 1515 1513 1512 1511 1509 1508 1506 1504 1502 1500 1498 1496 1494 1493 1491 1490 1489 1487 1486 1485 1484 1483 1483 1482 1481 1481 1480
1497 1507 1529 1541 1550 1549 1540 1541 1528 1513 1511 1511 1512 1513 1513 1514 1514 1514 1514 1514 1514 1514 1513 1511 1510 1508 1506 1504 1502 1500 1498 1496 1494 1492 1490 1488 1486 1485 1483 1482 1481 1480 1479 1478 1478 1477 1477 1476 1476
1496 1504 1506 1526 1540 1550 1546 1538 1523 1512 1511 1511 1511 1512 1513 1513 1513 1514 1513 1513 1512 1511 1510 1508 1507 1505 1503 1501 1499 1496 1494 1492 1490 1487 1485 1483 1481 1479 1477 1476 1475 1474 1473 1473 1472 1472 1472 1471 1471
1486 1493 1510 1526 1543 1549 1546 1542 1535 1518 1514 1511 1511 1512 1513 1513 1513 1512 1512 1511 1510 1509 1507 1506 1503 1501 1499 1497 1494 1492 1489 1487 1484 1482 1480 1478 1475 1473 1472 1470 1469 1468 1467 1466 1466 1466 1466 1466 1466
1491 1495 1505 1519 1525 1542 1550 1542 1514 1513 1511 1511 1510 1511 1511 1511 1511 1510 1510 1509 1508 1506 1505 1502 1500 1498 1495 1492 1490 1487 1484 1482 1479 1476 1474 1472 1469 1467 1465 1464 1462 1461 1460 1459 1459 1459 1459 1459 1460
1486 1491 1501 1518 1523 1529 1539 1537 1505 1506 1507 1508 1509 1509 1510 1509 1509 1509 1508 1507 1505 1503 1501 1499 1496 1493 1491 1488 1485 1482 1479 1476 1473 1470 1468 1466 1463 1461 1459 1457 1455 1454 1453 1452 1452 1451 1452 1452 1453